Showing default

KANOPUS-V 3, 43180

Orbit data source: Space-Track

KANOPUS-V 3, 43180 is a payload satellite owned by VNIIEM (CIS) in SSO that was launched on Thu, 01 Feb 2018 UTC via a SOYUZ-2-1A launch vehicle from the Vostochny Cosmodrome (VOSTO). Payload-class satellites include a variety of spacecraft equipped with specific instruments for various scientific and technological missions. These include communications satellites like Starlink; space stations such as the ISS; scientific satellites like the Hubble; Earth observation satellites from companies like Planet Labs, Umbra, and HawkEye 360; GPS; miniature CubeSats for education and research; and military/defense satellites.

Loading next visibility...
Identifier
43180, 2018-014A
Orbit
SSO
Country
Flag of CISCIS
Related business
Manufacturer
VNIIEM
Mission
Operational Civil Imaging
Bus & Motor
KANOPUS, Unknown motor
Mass
490 kg wet, 490 kg dry
Launch date (UTC)
2018-02-01 (8 years ago)
Launch vehicle
SOYUZ-2-1A
Launch site
Vostochny Cosmodrome (VOSTO)
Object type
Payload
Rocket body
Debris
Shape & HBR
Box + 2 Pan, 3.0 m
Radar Cross Section
1.665 m², Large (>1 m²)

Expand to show TLE details & history
Last TLE update: 12 hours ago

TLE from 12 hours ago
0 KANOPUS-V 3
1 43180U 18014A   25353.71593984  .00002371  00000-0  10201-3 0  9994
2 43180  97.3692 257.7162 0001946  83.2397 276.9061 15.23600742437405
Epoch: 2025-12-19T17:10Z
TLE epoch observation values (Epoch: 2025-12-19T17:10:57.202Z)
Latitude
-0.00006°
Longitude
-88.57524°
Altitude
497.926 km
Speed
7.616 km/s
True Right ascension
17h 10m 51s
True Declination
0° 00' 00"
Sunlit
Object was in daylight at epoch
Visualization orbit readout
Latitude
Unknown
Longitude
Unknown
Altitude
Unknown
Speed
Unknown
Apparent Right ascension
Unknown
Apparent Declination
Unknown
Sunlit
N/A
Visualization observer readout
Local Sidereal Time
03:40:11
Azimuth
Unknown
Elevation
Unknown
Doppler factor
Unknown
Orbital elements
Apogee altitude
493.287 km
Perigee altitude
490.613 km
Semi-major axis
6,870.087 km
Eccentricity
0.00019
Inclination
97.3692°
RAAN
257.7162°
Arg. of periapsis
83.2397°
True anomaly
276.88396°
Mean anomaly
276.9061°
Eccentric anomaly
276.89503°
Mean motion
3.81153 °/min
Orbital period
94.45 mins
BSTAR
0.00010201
Loading maneuver chart data...
Computing Atmospheric mass density...
Loading historical data...
Loading historical data...
Loading historical data...
Loading historical data...
Loading historical data...
Loading historical data...
Loading historical data...

Documentation

Showing up to 5 results
|